Powrót do katalogu

STARLINK-34989

AktywnyŁącznośćSSO
NORAD 65251·PAYLOAD·🇺🇸 United States

Wystrzelony Aug 18, 2025 z Vandenberg Space Force Base

Loading…

Następne Przeloty (najbliższe 24 godziny)

TLE

ŚwieżeSource: CelesTrak SupGP

Epoka: Sep 15, 2026, 04:01 UTC

1 65251C 25179S   26258.16784722 -.00026482  00000+0 -82205-3 0  2584
2 65251  97.2831 297.5770 0001367  86.1039 359.0472 15.33452866    16

Śledź STARLINK-34989 w czasie rzeczywistym z AllMySat

Download on the App Store